Location: Toronto
(43.6672°N, 79.4170°W)
Time: 22:13:29
(UTC-04:00)

ISS - Visible Passes

Search period start: 07 July 2015 00:00
Search period end: 17 July 2015 00:00
Orbit: 398 x 402 km, 51.6° (Epoch: 07 July)

Date Brightness Start Highest point End Pass type
(mag) Time Alt. Az. Time Alt. Az. Time Alt. Az.
13 Jul -1.0 04:35:57 10° S 04:37:59 16° SE 04:40:05 10° E visible
15 Jul -2.2 04:24:55 19° S 04:26:37 33° SE 04:29:36 10° ENE visible
16 Jul -1.3 03:33:10 18° SE 03:33:10 18° SE 03:35:18 10° E visible
16 Jul -3.1 05:05:52 10° WSW 05:09:05 63° NNW 05:12:20 10° NE visible
